Terminal Aerodrome Forecast
Issued by NWS

Home | Current Version | Previous Version | Graphics & Text | Print | Product List | Glossary On
Versions: 1 2 3 4 5 6 7 8 9 10 11 12 13
000
FTUS45 KGGW 271100
TAFSDY
TAF
KSDY 271139Z 2712/2812 VRB06KT P6SM SCT030
      TEMPO 2712/2714 BKN027
     FM272200 VRB04KT P6SM SKC
      AMD LTD TO CLD VIS AND WIND=

USA.gov is the U.S. government's official web portal to all federal, state and local government web resources and services.